Location: Madrid
(40.4000°N, 3.6830°W)
Time: 15:40:14

ISS - Pass Details

Date: 16 March 2018
Orbit: 403 x 406 km, 51.6° (Epoch: 17 March)

Event Time Altitude Azimuth Distance (km) Brightness Sun altitude
Exits shadow 06:45:18 - 309° (NW) 1,870 -0.9 -8.4°
Reaches altitude 10° 06:46:18 10° 310° (NW) 1,463 -1.4 -8.2°
Maximum altitude 06:49:34 72° 36° (NE) 427 -3.6 -7.6°
Drops below altitude 10° 06:52:50 10° 121° (ESE) 1,454 -0.1 -7.0°
Sets 06:54:54 0° 123° (ESE) 2,309 1.0 -6.6°
